Time,TemperatureF,DewpointF,PressureIn,WindDirection,WindDirectionDegrees,WindSpeedMPH,WindSpeedGustMPH,Humidity,HourlyPrecipIn,Conditions,Clouds,dailyrainin,SoftwareType,DateUTC
2013-05-28 00:10:00,64.6,63.0,29.86,SSW,198,3.0,-999.0,94,-99.99,,,1.11,weatherlink.com 1.10,2013-05-28 05:10:00,
2013-05-28 00:25:00,64.6,63.0,29.86,South,179,4.0,-999.0,94,-99.99,,,1.11,weatherlink.com 1.10,2013-05-28 05:25:00,
2013-05-28 00:40:00,64.5,63.0,29.86,SE,142,3.0,-999.0,93,-99.99,,,1.11,weatherlink.com 1.10,2013-05-28 05:40:00,
2013-05-28 00:55:00,64.4,62.0,29.86,SSW,202,6.0,-999.0,93,-99.99,,,0.00,weatherlink.com 1.10,2013-05-28 05:55:00,
2013-05-28 01:10:00,64.2,62.0,29.85,South,186,9.0,-999.0,93,-99.99,,,0.00,weatherlink.com 1.10,2013-05-28 06:10:00,
2013-05-28 01:25:00,64.1,62.0,29.85,SE,140,5.0,-999.0,93,-99.99,,,0.00,weatherlink.com 1.10,2013-05-28 06:25:00,
2013-05-28 01:40:00,63.9,62.0,29.84,SE,146,6.0,-999.0,94,-99.99,,,0.00,weatherlink.com 1.10,2013-05-28 06:40:00,
2013-05-28 01:55:00,63.8,62.0,29.83,SSE,158,2.0,-999.0,94,-99.99,,,0.00,weatherlink.com 1.10,2013-05-28 06:55:00,
2013-05-28 02:10:00,63.7,62.0,29.82,SE,129,5.0,-999.0,94,-99.99,,,0.00,weatherlink.com 1.10,2013-05-28 07:10:00,
2013-05-28 02:25:00,63.6,62.0,29.82,SSE,153,6.0,-999.0,94,-99.99,,,0.00,weatherlink.com 1.10,2013-05-28 07:25:00,
2013-05-28 02:40:00,63.6,62.0,29.81,SSW,192,4.0,-999.0,94,-99.99,,,0.00,weatherlink.com 1.10,2013-05-28 07:40:00,
2013-05-28 02:56:00,64.0,62.0,29.80,SSE,147,6.0,-999.0,94,-99.99,,,0.00,weatherlink.com 1.10,2013-05-28 07:56:00,
2013-05-28 03:11:00,64.8,63.0,29.81,SSW,210,0.0,-999.0,93,-99.99,,,0.00,weatherlink.com 1.10,2013-05-28 08:11:00,
2013-05-28 03:26:00,65.2,63.0,29.81,SSE,167,7.0,-999.0,91,-99.99,,,0.00,weatherlink.com 1.10,2013-05-28 08:26:00,
2013-05-28 03:41:00,65.9,62.0,29.81,South,178,1.0,-999.0,88,-99.99,,,0.00,weatherlink.com 1.10,2013-05-28 08:41:00,
2013-05-28 03:56:00,66.2,62.0,29.81,SSW,211,1.0,-999.0,87,-99.99,,,0.00,weatherlink.com 1.10,2013-05-28 08:56:00,
2013-05-28 04:11:00,66.1,62.0,29.80,SSE,165,0.0,-999.0,87,-99.99,,,0.00,weatherlink.com 1.10,2013-05-28 09:11:00,
2013-05-28 04:26:00,66.0,62.0,29.80,SSE,155,0.0,-999.0,87,-99.99,,,0.00,weatherlink.com 1.10,2013-05-28 09:26:00,
2013-05-28 04:41:00,65.9,62.0,29.80,South,184,0.0,-999.0,87,-99.99,,,0.00,weatherlink.com 1.10,2013-05-28 09:41:00,
2013-05-28 04:56:00,66.0,62.0,29.81,SSW,206,4.0,-999.0,86,-99.99,,,0.00,weatherlink.com 1.10,2013-05-28 09:56:00,
2013-05-28 05:11:00,66.0,62.0,29.81,South,183,3.0,-999.0,86,-99.99,,,0.00,weatherlink.com 1.10,2013-05-28 10:11:00,
2013-05-28 05:27:00,66.4,62.0,29.81,SSW,194,12.0,-999.0,86,-99.99,,,0.00,weatherlink.com 1.10,2013-05-28 10:27:00,
2013-05-28 05:42:00,66.3,62.0,29.82,SW,219,5.0,-999.0,86,-99.99,,,0.00,weatherlink.com 1.10,2013-05-28 10:42:00,
2013-05-28 05:57:00,66.3,62.0,29.83,WSW,240,13.0,-999.0,86,-99.99,,,0.00,weatherlink.com 1.10,2013-05-28 10:57:00,
2013-05-28 06:11:00,66.2,62.0,29.84,SW,219,9.0,-999.0,86,-99.99,,,0.00,weatherlink.com 1.10,2013-05-28 11:11:00,
2013-05-28 06:26:00,66.3,62.0,29.84,SW,218,0.0,-999.0,86,-99.99,,,0.00,weatherlink.com 1.10,2013-05-28 11:26:00,
2013-05-28 06:41:00,66.6,62.0,29.84,SW,217,8.0,-999.0,86,-99.99,,,0.00,weatherlink.com 1.10,2013-05-28 11:41:00,
2013-05-28 06:56:00,67.0,63.0,29.84,SSW,204,0.0,-999.0,86,-99.99,,,0.00,weatherlink.com 1.10,2013-05-28 11:56:00,
2013-05-28 07:11:00,67.4,63.0,29.83,SSW,192,14.0,-999.0,85,-99.99,,,0.00,weatherlink.com 1.10,2013-05-28 12:11:00,
2013-05-28 07:26:00,67.7,63.0,29.82,SSW,192,1.0,-999.0,85,-99.99,,,0.00,weatherlink.com 1.10,2013-05-28 12:26:00,
2013-05-28 07:41:00,67.9,63.0,29.82,South,188,5.0,-999.0,85,-99.99,,,0.00,weatherlink.com 1.10,2013-05-28 12:41:00,
2013-05-28 07:56:00,68.2,64.0,29.82,South,185,2.0,-999.0,85,-99.99,,,0.00,weatherlink.com 1.10,2013-05-28 12:56:00,
2013-05-28 08:12:00,68.7,64.0,29.82,SW,220,0.0,-999.0,85,-99.99,,,0.00,weatherlink.com 1.10,2013-05-28 13:12:00,
2013-05-28 08:27:00,68.7,64.0,29.83,South,187,12.0,-999.0,85,-99.99,,,0.00,weatherlink.com 1.10,2013-05-28 13:27:00,
2013-05-28 08:42:00,68.8,64.0,29.82,South,176,0.0,-999.0,85,-99.99,,,0.00,weatherlink.com 1.10,2013-05-28 13:42:00,
2013-05-28 08:57:00,69.0,65.0,29.84,South,180,5.0,-999.0,86,-99.99,,,0.00,weatherlink.com 1.10,2013-05-28 13:57:00,
2013-05-28 09:11:00,69.1,65.0,29.85,SW,225,3.0,-999.0,85,-99.99,,,0.00,weatherlink.com 1.10,2013-05-28 14:11:00,
2013-05-28 09:26:00,69.3,65.0,29.84,SW,233,3.0,-999.0,86,-99.99,,,0.00,weatherlink.com 1.10,2013-05-28 14:26:00,
2013-05-28 09:42:00,69.6,65.0,29.84,South,185,0.0,-999.0,86,-99.99,,,0.00,weatherlink.com 1.10,2013-05-28 14:42:00,
2013-05-28 09:57:00,69.3,65.0,29.83,SSW,208,5.0,-999.0,87,-99.99,,,0.01,weatherlink.com 1.10,2013-05-28 14:57:00,
2013-05-28 10:12:00,69.0,65.0,29.81,SSE,149,0.0,-999.0,88,-99.99,,,0.01,weatherlink.com 1.10,2013-05-28 15:12:00,
2013-05-28 10:27:00,69.3,65.0,29.80,SSE,162,8.0,-999.0,87,-99.99,,,0.01,weatherlink.com 1.10,2013-05-28 15:27:00,
2013-05-28 10:42:00,70.0,66.0,29.80,SW,215,8.0,-999.0,86,-99.99,,,0.01,weatherlink.com 1.10,2013-05-28 15:42:00,
2013-05-28 10:57:00,71.3,67.0,29.82,SW,228,6.0,-999.0,85,-99.99,,,0.01,weatherlink.com 1.10,2013-05-28 15:57:00,
2013-05-28 11:12:00,72.6,68.0,29.81,SSW,211,8.0,-999.0,84,-99.99,,,0.01,weatherlink.com 1.10,2013-05-28 16:12:00,
2013-05-28 11:27:00,73.5,68.0,29.81,South,188,3.0,-999.0,83,-99.99,,,0.01,weatherlink.com 1.10,2013-05-28 16:27:00,
2013-05-28 11:42:00,73.9,68.0,29.81,SSW,200,8.0,-999.0,81,-99.99,,,0.01,weatherlink.com 1.10,2013-05-28 16:42:00,
2013-05-28 11:57:00,74.4,69.0,29.80,SW,214,11.0,-999.0,82,-99.99,,,0.01,weatherlink.com 1.10,2013-05-28 16:57:00,
2013-05-28 12:13:00,74.2,68.0,29.80,SW,232,1.0,-999.0,81,-99.99,,,0.01,weatherlink.com 1.10,2013-05-28 17:13:00,
2013-05-28 12:28:00,75.1,69.0,29.80,SSW,202,17.0,-999.0,80,-99.99,,,0.01,weatherlink.com 1.10,2013-05-28 17:28:00,
2013-05-28 12:43:00,75.9,69.0,29.80,WSW,244,9.0,-999.0,78,-99.99,,,0.01,weatherlink.com 1.10,2013-05-28 17:43:00,
2013-05-28 12:58:00,76.5,70.0,29.79,SSW,210,14.0,-999.0,79,-99.99,,,0.01,weatherlink.com 1.10,2013-05-28 17:58:00,
2013-05-28 13:12:00,77.5,69.0,29.78,SSW,199,18.0,-999.0,76,-99.99,,,0.01,weatherlink.com 1.10,2013-05-28 18:12:00,
2013-05-28 13:27:00,77.8,69.0,29.79,SW,229,20.0,-999.0,74,-99.99,,,0.01,weatherlink.com 1.10,2013-05-28 18:27:00,
2013-05-28 13:43:00,77.0,68.0,29.78,SW,214,14.0,-999.0,74,-99.99,,,0.01,weatherlink.com 1.10,2013-05-28 18:43:00,
2013-05-28 13:57:00,77.5,69.0,29.79,SSW,200,9.0,-999.0,76,-99.99,,,0.01,weatherlink.com 1.10,2013-05-28 18:57:00,
2013-05-28 14:12:00,77.1,69.0,29.79,SSW,192,11.0,-999.0,75,-99.99,,,0.01,weatherlink.com 1.10,2013-05-28 19:12:00,
2013-05-28 14:27:00,77.5,70.0,29.79,SW,234,15.0,-999.0,77,-99.99,,,0.01,weatherlink.com 1.10,2013-05-28 19:27:00,
2013-05-28 14:42:00,78.2,70.0,29.79,WSW,248,3.0,-999.0,76,-99.99,,,0.01,weatherlink.com 1.10,2013-05-28 19:42:00,
2013-05-28 14:57:00,78.0,70.0,29.79,WSW,241,4.0,-999.0,75,-99.99,,,0.01,weatherlink.com 1.10,2013-05-28 19:57:00,
2013-05-28 15:13:00,78.3,69.0,29.79,South,170,5.0,-999.0,73,-99.99,,,0.01,weatherlink.com 1.10,2013-05-28 20:13:00,
2013-05-28 15:28:00,78.1,69.0,29.79,WSW,244,3.0,-999.0,74,-99.99,,,0.01,weatherlink.com 1.10,2013-05-28 20:28:00,
2013-05-28 15:43:00,78.4,69.0,29.79,SSW,192,15.0,-999.0,73,-99.99,,,0.01,weatherlink.com 1.10,2013-05-28 20:43:00,
2013-05-28 15:58:00,79.0,69.0,29.79,SW,215,2.0,-999.0,72,-99.99,,,0.01,weatherlink.com 1.10,2013-05-28 20:58:00,
2013-05-28 16:13:00,78.5,70.0,29.80,SSW,196,4.0,-999.0,74,-99.99,,,0.01,weatherlink.com 1.10,2013-05-28 21:13:00,
2013-05-28 16:28:00,78.6,70.0,29.79,SW,214,8.0,-999.0,75,-99.99,,,0.01,weatherlink.com 1.10,2013-05-28 21:28:00,
2013-05-28 16:44:00,78.4,70.0,29.80,South,175,5.0,-999.0,76,-99.99,,,0.01,weatherlink.com 1.10,2013-05-28 21:44:00,
2013-05-28 16:59:00,78.0,70.0,29.80,SW,225,12.0,-999.0,76,-99.99,,,0.01,weatherlink.com 1.10,2013-05-28 21:59:00,
2013-05-28 17:13:00,77.8,70.0,29.80,South,190,6.0,-999.0,78,-99.99,,,0.01,weatherlink.com 1.10,2013-05-28 22:13:00,
2013-05-28 17:28:00,77.7,70.0,29.79,South,184,2.0,-999.0,76,-99.99,,,0.01,weatherlink.com 1.10,2013-05-28 22:28:00,
2013-05-28 17:43:00,78.0,70.0,29.80,South,181,7.0,-999.0,77,-99.99,,,0.01,weatherlink.com 1.10,2013-05-28 22:43:00,
2013-05-28 17:58:00,78.2,70.0,29.79,SE,139,2.0,-999.0,77,-99.99,,,0.01,weatherlink.com 1.10,2013-05-28 22:58:00,
2013-05-28 18:13:00,78.2,70.0,29.79,SW,219,3.0,-999.0,77,-99.99,,,0.01,weatherlink.com 1.10,2013-05-28 23:13:00,
2013-05-28 18:28:00,78.6,71.0,29.79,SSW,196,1.0,-999.0,78,-99.99,,,0.01,weatherlink.com 1.10,2013-05-28 23:28:00,
2013-05-28 18:43:00,78.7,71.0,29.77,SSW,211,0.0,-999.0,78,-99.99,,,0.01,weatherlink.com 1.10,2013-05-28 23:43:00,
2013-05-28 18:58:00,78.5,72.0,29.76,SSE,152,0.0,-999.0,79,-99.99,,,0.01,weatherlink.com 1.10,2013-05-28 23:58:00,
2013-05-28 19:14:00,78.3,71.0,29.76,SSW,211,0.0,-999.0,78,-99.99,,,0.01,weatherlink.com 1.10,2013-05-29 00:14:00,
2013-05-28 19:29:00,77.9,71.0,29.77,SW,224,6.0,-999.0,78,-99.99,,,0.01,weatherlink.com 1.10,2013-05-29 00:29:00,
2013-05-28 19:44:00,77.3,70.0,29.78,South,190,0.0,-999.0,79,-99.99,,,0.01,weatherlink.com 1.10,2013-05-29 00:44:00,
2013-05-28 19:59:00,77.0,70.0,29.79,South,174,0.0,-999.0,79,-99.99,,,0.01,weatherlink.com 1.10,2013-05-29 00:59:00,
2013-05-28 20:13:00,76.9,70.0,29.78,South,186,0.0,-999.0,78,-99.99,,,0.01,weatherlink.com 1.10,2013-05-29 01:13:00,
2013-05-28 20:28:00,76.7,69.0,29.77,SSW,197,2.0,-999.0,77,-99.99,,,0.01,weatherlink.com 1.10,2013-05-29 01:28:00,
2013-05-28 20:44:00,76.5,69.0,29.77,SSE,161,0.0,-999.0,78,-99.99,,,0.01,weatherlink.com 1.10,2013-05-29 01:44:00,
2013-05-28 20:59:00,76.1,68.0,29.80,SW,219,1.0,-999.0,77,-99.99,,,0.01,weatherlink.com 1.10,2013-05-29 01:59:00,
2013-05-28 21:13:00,76.3,68.0,29.81,SW,228,2.0,-999.0,75,-99.99,,,0.01,weatherlink.com 1.10,2013-05-29 02:13:00,
2013-05-28 21:28:00,76.0,68.0,29.82,South,183,5.0,-999.0,75,-99.99,,,0.01,weatherlink.com 1.10,2013-05-29 02:28:00,
2013-05-28 21:43:00,75.4,67.0,29.83,SSW,209,5.0,-999.0,76,-99.99,,,0.01,weatherlink.com 1.10,2013-05-29 02:43:00,
2013-05-28 21:58:00,74.9,68.0,29.83,SW,222,5.0,-999.0,78,-99.99,,,0.01,weatherlink.com 1.10,2013-05-29 02:58:00,
2013-05-28 22:14:00,74.6,68.0,29.84,SSW,207,2.0,-999.0,79,-99.99,,,0.01,weatherlink.com 1.10,2013-05-29 03:14:00,
2013-05-28 22:29:00,74.2,66.0,29.84,NE,38,4.0,-999.0,76,-99.99,,,0.01,weatherlink.com 1.10,2013-05-29 03:29:00,
2013-05-28 22:44:00,73.4,66.0,29.85,South,186,0.0,-999.0,77,-99.99,,,0.01,weatherlink.com 1.10,2013-05-29 03:44:00,
2013-05-28 22:59:00,73.8,67.0,29.84,SSW,207,3.0,-999.0,78,-99.99,,,0.01,weatherlink.com 1.10,2013-05-29 03:59:00,
2013-05-28 23:14:00,73.6,67.0,29.86,SSW,205,0.0,-999.0,79,-99.99,,,0.01,weatherlink.com 1.10,2013-05-29 04:14:00,
2013-05-28 23:29:00,73.2,67.0,29.86,SSW,205,0.0,-999.0,80,-99.99,,,0.01,weatherlink.com 1.10,2013-05-29 04:29:00,
2013-05-28 23:44:00,72.7,67.0,29.85,South,187,4.0,-999.0,81,-99.99,,,0.01,weatherlink.com 1.10,2013-05-29 04:44:00,
2013-05-28 23:59:00,72.2,66.0,29.85,SE,140,0.0,-999.0,82,-99.99,,,0.01,weatherlink.com 1.10,2013-05-29 04:59:00,